TimeMDT,TemperatureF,Dew PointF,Humidity,Sea Level PressureIn,VisibilityMPH,Wind Direction,Wind SpeedMPH,Gust SpeedMPH,PrecipitationIn,Events,Conditions,WindDirDegrees,DateUTC
12:53 AM,57.9,55.0,90,29.85,10.0,SW,11.5,-,N/A,,Clear,220,2013-09-19 06:53:00
1:53 AM,59.0,55.0,87,29.84,10.0,SSW,10.4,-,N/A,,Partly Cloudy,210,2013-09-19 07:53:00
2:53 AM,59.0,55.0,87,29.84,10.0,SW,10.4,-,N/A,,Overcast,220,2013-09-19 08:53:00
3:53 AM,59.0,55.0,87,29.84,10.0,SW,9.2,-,N/A,,Overcast,230,2013-09-19 09:53:00
4:53 AM,59.0,55.0,87,29.85,10.0,West,12.7,-,0.00,,Overcast,260,2013-09-19 10:53:00
5:27 AM,55.4,53.6,94,30.13,7.0,NW,15.0,-,0.04,Rain,Rain,310,2013-09-19 11:27:00
5:53 AM,55.0,53.1,93,29.89,10.0,West,4.6,-,0.05,Rain,Light Rain,280,2013-09-19 11:53:00
6:53 AM,55.9,53.1,90,29.90,10.0,NNW,4.6,-,0.00,,Scattered Clouds,330,2013-09-19 12:53:00
7:53 AM,57.0,53.1,87,29.94,10.0,West,8.1,-,N/A,,Mostly Cloudy,270,2013-09-19 13:53:00
8:53 AM,60.1,54.0,80,29.94,10.0,NW,9.2,-,N/A,,Clear,310,2013-09-19 14:53:00
9:53 AM,64.9,53.1,65,29.94,10.0,WNW,10.4,-,N/A,,Mostly Cloudy,300,2013-09-19 15:53:00
10:53 AM,66.9,53.1,61,29.94,10.0,West,8.1,-,N/A,,Mostly Cloudy,280,2013-09-19 16:53:00
11:53 AM,71.1,52.0,51,29.92,10.0,WNW,9.2,-,N/A,,Overcast,290,2013-09-19 17:53:00
12:53 PM,73.0,46.0,38,29.90,10.0,NW,11.5,-,N/A,,Scattered Clouds,320,2013-09-19 18:53:00
1:53 PM,75.0,43.0,32,29.87,10.0,WNW,12.7,19.6,N/A,,Clear,300,2013-09-19 19:53:00
2:53 PM,75.9,42.1,30,29.85,10.0,West,9.2,16.1,N/A,,Clear,270,2013-09-19 20:53:00
3:53 PM,75.0,42.1,31,29.84,10.0,WNW,10.4,-,N/A,,Clear,290,2013-09-19 21:53:00
4:53 PM,75.0,37.9,26,29.83,10.0,NNW,9.2,-,N/A,,Clear,340,2013-09-19 22:53:00
5:53 PM,73.0,39.9,30,29.86,10.0,NW,4.6,-,N/A,,Clear,320,2013-09-19 23:53:00
6:53 PM,66.9,43.0,42,29.87,10.0,WNW,6.9,-,N/A,,Clear,300,2013-09-20 00:53:00
7:53 PM,64.9,41.0,42,29.89,10.0,NW,5.8,-,N/A,,Clear,310,2013-09-20 01:53:00
8:53 PM,59.0,46.0,62,29.92,10.0,WNW,5.8,-,N/A,,Clear,300,2013-09-20 02:53:00
9:53 PM,59.0,44.1,58,29.92,10.0,SSE,4.6,-,N/A,,Clear,150,2013-09-20 03:53:00
10:53 PM,59.0,48.0,67,29.91,10.0,North,4.6,-,N/A,,Clear,360,2013-09-20 04:53:00
11:53 PM,59.0,48.9,69,29.94,10.0,ENE,11.5,20.7,N/A,,Scattered Clouds,70,2013-09-20 05:53:00